Change the Weather History Date:

Sunday, July 21, 2013

  Actual Average Record
Temperature  
Mean Temperature 82 °F -  
Max Temperature 91 °F 96 °F 107 °F (2005)
Min Temperature 73 °F 69 °F 51 °F (1954)
Cooling Degree Days 17    
Growing Degree Days 32 (Base 50)    
Moisture  
Dew Point 63 °F    
Average Humidity 56    
Maximum Humidity 73    
Minimum Humidity 35    
Precipitation  
Precipitation 0.00 in - - ()
Sea Level Pressure  
Sea Level Pressure 29.79 in    
Wind  
Wind Speed 6 mph (WNW)    
Max Wind Speed 24 mph    
Max Gust Speed 30 mph    
Visibility 10 miles    
Events Rain    
Averages and records for this station are not official NWS values.
T = Trace of Precipitation, MM = Missing Value Source: NWS Daily Summary

Daily Weather History Graph

Daily Weather History Graph

Search for Another Location

Airport or City:

Trip Planner

Search our weather history database for the weather conditions in past years. The results will help you decide how hot, cold, wet, or windy it might be!

Date:

Astronomy

Jul. 21, 2013 Rise Set
Actual Time 5:25 AM MST 7:24 PM MST
Civil Twilight 4:57 AM MST 7:52 PM MST
Nautical Twilight 4:23 AM MST 8:25 PM MST
Astronomical Twilight 3:48 AM MST 9:01 PM MST
Moon 6:28 PM MST (7/21) 4:13 AM MST (7/21)
Length of Visible Light 14h 54m
Length of Day
13h 59m
Waxing Gibbous, 99% of the Moon is Illuminated
Jul 21
Waxing Gibbous
Jul 22
Full
Jul 29
Last Quarter
Aug 6
New
Aug 14
First Quarter

Hourly Weather History & Observations

Time (MST) Temp. Heat Index Dew Point Humidity Pressure Visibility Wind Dir Wind Speed Gust Speed Precip Events Conditions
12:51 AM 75.0 °F - 64.9 °F 71% 29.77 in 10.0 mi Calm Calm - N/A   Clear
1:51 AM 75.0 °F - 63.0 °F 66% 29.75 in 10.0 mi WNW 4.6 mph - N/A   Clear
2:51 AM 73.9 °F - 64.0 °F 71% 29.75 in 10.0 mi Calm Calm - N/A   Clear
3:51 AM 75.0 °F - 64.9 °F 71% 29.75 in 10.0 mi Calm Calm - N/A   Clear
4:51 AM 75.0 °F - 64.9 °F 71% 29.78 in 10.0 mi Calm Calm - N/A   Clear
5:51 AM 75.0 °F - 64.9 °F 71% 29.80 in 10.0 mi ESE 3.5 mph - N/A   Mostly Cloudy
6:51 AM 73.9 °F - 64.9 °F 73% 29.82 in 10.0 mi WSW 5.8 mph - N/A   Scattered Clouds
8:51 AM 77.0 °F - 64.0 °F 64% 29.86 in 10.0 mi NW 3.5 mph - N/A   Overcast
9:51 AM 79.0 °F - 64.0 °F 60% 29.86 in 10.0 mi NNW 5.8 mph - N/A   Partly Cloudy
10:51 AM 84.0 °F 85.4 °F 64.0 °F 51% 29.84 in 10.0 mi Variable 4.6 mph - N/A   Clear
11:51 AM 87.1 °F 87.5 °F 62.1 °F 43% 29.81 in 10.0 mi Variable 3.5 mph - N/A   Clear
12:51 PM 89.1 °F 89.3 °F 62.1 °F 40% 29.78 in 10.0 mi NNE 4.6 mph - N/A   Partly Cloudy
1:51 PM 89.1 °F 89.0 °F 61.0 °F 39% 29.77 in 10.0 mi Variable 3.5 mph - N/A   Clear
2:51 PM 91.0 °F 90.5 °F 60.1 °F 35% 29.74 in 10.0 mi West 16.1 mph 23.0 mph N/A   Clear
3:51 PM 84.9 °F 83.9 °F 57.0 °F 38% 29.76 in 10.0 mi WNW 20.7 mph 25.3 mph N/A   Clear
4:51 PM 88.0 °F 87.6 °F 60.1 °F 39% 29.75 in 10.0 mi WNW 24.2 mph 29.9 mph N/A   Clear
5:51 PM 84.9 °F 84.8 °F 60.1 °F 43% 29.76 in 10.0 mi WNW 19.6 mph - 0.00 in Rain Light Rain
6:51 PM 82.0 °F 82.7 °F 61.0 °F 49% 29.77 in 10.0 mi WNW 17.3 mph - 0.00 in   Scattered Clouds
7:51 PM 81.0 °F 81.9 °F 62.1 °F 52% 29.79 in 10.0 mi WNW 13.8 mph - N/A   Clear
8:51 PM 81.0 °F 82.2 °F 63.0 °F 54% 29.81 in 10.0 mi NW 10.4 mph - N/A   Clear
9:51 PM 80.1 °F 81.7 °F 64.0 °F 58% 29.83 in 10.0 mi WNW 10.4 mph - N/A   Clear
10:51 PM 79.0 °F - 63.0 °F 58% 29.83 in 10.0 mi WNW 9.2 mph - N/A   Clear
11:51 PM 79.0 °F - 64.0 °F 60% 29.83 in 10.0 mi WNW 9.2 mph - N/A   Clear